Location: Ernsee
(50.8780°N, 12.0389°E)
Time: 21:59:08
(UTC+00:00)

COSMOS 2455 - Pass Details

Date: 20 January 2020
Orbit: 902 x 908 km, 67.1° (Epoch: 28 February)

Event Time Altitude Azimuth Distance (km) Brightness Sun altitude
Rises 04:36:11 0° 196° (SSW) 3,514 5.8 -22.8°
Reaches altitude 10° 04:38:44 10° 191° (S) 2,578 5.1 -22.4°
Maximum altitude 04:44:29 51° 117° (ESE) 1,132 3.7 -21.5°
Drops below altitude 10° 04:50:16 10° 44° (NE) 2,598 5.7 -20.6°
Sets 04:52:51 0° 39° (NE) 3,544 6.4 -20.2°
